AFL700 UNOO-UNNT

Flight info

Callsign AFL700
Flight time N/A
Altitude 37000
Route RUMOD5C RUMOD A844 BIKMI R234 ABESA B944 GOLIM GOLIM1K
Aircraft A321/M-SDE3FGHIRWY/LB1

Departure

Time 2026-04-30 14:51
Airport Omsk Central Airport (UNOO)

Arrival

Time N/A
Airport Novosibirsk Tolmachevo Airport (UNNT)
Time Latitude Longitude Altitude Speed Heading
2026-04-30 14:33 54.96333 73.31992 298 ft 0 kts 137°
2026-04-30 14:46 54.96323 73.32008 300 ft 6 kts 137°
2026-04-30 14:46 54.96295 73.32062 301 ft 11 kts 120°
2026-04-30 14:47 54.96379 73.32225 299 ft 13 kts 30°
2026-04-30 14:47 54.96449 73.32150 298 ft 17 kts 268°
2026-04-30 14:47 54.96416 73.31892 299 ft 27 kts 257°
2026-04-30 14:47 54.96366 73.31514 299 ft 37 kts 257°
2026-04-30 14:48 54.96306 73.31049 300 ft 41 kts 256°
2026-04-30 14:48 54.96259 73.30701 306 ft 46 kts 257°
2026-04-30 14:48 54.96182 73.30120 307 ft 54 kts 257°
2026-04-30 14:48 54.96114 73.29618 311 ft 34 kts 257°
2026-04-30 14:49 54.96081 73.29374 314 ft 10 kts 256°
2026-04-30 14:49 54.96080 73.29314 314 ft 2 kts 285°
2026-04-30 14:49 54.96100 73.29289 314 ft 8 kts 335°
2026-04-30 14:49 54.96205 73.29242 316 ft 22 kts 348°
2026-04-30 14:50 54.96456 73.29168 320 ft 11 kts 39°
2026-04-30 14:50 54.96499 73.29440 322 ft 48 kts 77°
2026-04-30 14:51 54.96861 73.32158 351 ft 164 kts 77°
2026-04-30 14:51 54.97110 73.34085 933 ft 166 kts 74°
2026-04-30 14:51 54.97467 73.36698 1817 ft 167 kts 77°
2026-04-30 14:52 54.98605 73.45284 2997 ft 235 kts 77°
2026-04-30 14:52 54.98987 73.48175 3522 ft 251 kts 78°
2026-04-30 14:53 54.99495 73.54295 5129 ft 260 kts 91°
2026-04-30 14:53 54.99493 73.56896 5818 ft 263 kts 91°
2026-04-30 14:54 54.99487 73.63470 7399 ft 273 kts 92°
2026-04-30 14:54 54.99477 73.70245 8833 ft 287 kts 92°
2026-04-30 14:55 54.99466 73.77304 10210 ft 299 kts 92°
2026-04-30 14:55 54.99461 73.81087 10520 ft 320 kts 92°
2026-04-30 14:55 54.99438 73.89258 11175 ft 352 kts 92°
2026-04-30 14:56 54.99411 73.97907 12462 ft 361 kts 92°
2026-04-30 14:56 54.99382 74.06824 13784 ft 371 kts 92°
2026-04-30 14:57 54.99367 74.11283 14363 ft 375 kts 93°
2026-04-30 14:57 54.99328 74.20534 15535 ft 383 kts 93°
2026-04-30 14:58 54.99270 74.29850 16665 ft 391 kts 93°
2026-04-30 14:58 54.99239 74.34623 17233 ft 395 kts 93°
2026-04-30 14:58 54.99176 74.44288 18329 ft 403 kts 93°
2026-04-30 14:59 54.99108 74.54126 19281 ft 410 kts 93°
2026-04-30 15:00 54.98978 74.69151 20649 ft 418 kts 93°
2026-04-30 15:00 54.98876 74.79339 21487 ft 423 kts 93°
2026-04-30 15:01 54.98765 74.89647 22315 ft 429 kts 93°
2026-04-30 15:01 54.98728 74.93110 22583 ft 431 kts 93°
2026-04-30 15:01 54.98588 75.05381 23558 ft 437 kts 92°
2026-04-30 15:02 54.98522 75.10680 23916 ft 439 kts 92°
2026-04-30 15:02 54.98451 75.16018 24261 ft 442 kts 92°
2026-04-30 15:03 54.98229 75.32196 25304 ft 449 kts 92°
2026-04-30 15:03 54.98215 75.43129 26000 ft 455 kts 86°
2026-04-30 15:04 54.98695 75.54169 26688 ft 460 kts 85°
2026-04-30 15:04 54.99511 75.70953 27676 ft 467 kts 85°
2026-04-30 15:05 55.00281 75.87998 28656 ft 474 kts 85°
2026-04-30 15:06 55.00771 75.99510 29288 ft 479 kts 85°
2026-04-30 15:06 55.01260 76.11133 29894 ft 483 kts 85°
2026-04-30 15:07 55.01736 76.22857 30416 ft 487 kts 85°
2026-04-30 15:07 55.02211 76.34705 30862 ft 492 kts 85°
2026-04-30 15:08 55.02678 76.46619 31360 ft 494 kts 85°
2026-04-30 15:08 55.03356 76.64525 32260 ft 493 kts 85°
2026-04-30 15:09 55.03796 76.76466 32868 ft 493 kts 84°
2026-04-30 15:09 55.04220 76.88259 33126 ft 483 kts 84°
2026-04-30 15:10 55.04619 76.99854 33125 ft 477 kts 84°
2026-04-30 15:11 55.05753 77.34402 33132 ft 475 kts 84°
2026-04-30 15:13 55.06622 77.63146 33144 ft 474 kts 84°
2026-04-30 15:14 55.07715 78.03299 33160 ft 472 kts 84°
2026-04-30 15:17 55.08900 78.53162 33156 ft 470 kts 85°
2026-04-30 15:19 55.09795 78.98644 33155 ft 468 kts 85°